Time,TemperatureF,DewpointF,PressureIn,WindDirection,WindDirectionDegrees,WindSpeedMPH,WindSpeedGustMPH,Humidity,HourlyPrecipIn,Conditions,Clouds,dailyrainin,SoftwareType,DateUTC
2013-11-02 00:11:00,31.0,29.0,29.98,ENE,74,2.0,3.0,91,0.00,,,0.00,weatherlink.com 1.10,2013-11-02 09:11:00,
2013-11-02 00:26:00,31.4,29.0,29.98,ENE,74,1.0,2.0,92,0.00,,,0.00,weatherlink.com 1.10,2013-11-02 09:26:00,
2013-11-02 00:41:00,31.9,30.0,29.98,ENE,74,0.0,1.0,92,0.00,,,0.00,weatherlink.com 1.10,2013-11-02 09:41:00,
2013-11-02 00:56:00,31.5,30.0,29.98,ENE,74,1.0,4.0,92,0.00,,,0.00,weatherlink.com 1.10,2013-11-02 09:56:00,
2013-11-02 01:11:00,32.0,30.0,29.99,ENE,74,2.0,2.0,93,0.00,,,0.00,weatherlink.com 1.10,2013-11-02 10:11:00,
2013-11-02 01:26:00,31.6,30.0,29.99,ENE,74,0.0,3.0,92,0.00,,,0.00,weatherlink.com 1.10,2013-11-02 10:26:00,
2013-11-02 01:41:00,32.6,31.0,30.00,ESE,116,8.0,9.0,93,0.00,,,0.00,weatherlink.com 1.10,2013-11-02 10:41:00,
2013-11-02 01:56:00,34.0,32.0,29.99,ESE,102,5.0,6.0,91,0.00,,,0.00,weatherlink.com 1.10,2013-11-02 10:56:00,
2013-11-02 02:11:00,34.3,32.0,29.96,ENE,71,2.0,6.0,90,0.00,,,0.00,weatherlink.com 1.10,2013-11-02 11:11:00,
2013-11-02 02:26:00,35.1,33.0,29.96,SE,136,0.0,5.0,90,0.00,,,0.00,weatherlink.com 1.10,2013-11-02 11:26:00,
2013-11-02 02:41:00,34.6,31.0,29.95,NNE,26,0.0,2.0,88,0.00,,,0.00,weatherlink.com 1.10,2013-11-02 11:41:00,
2013-11-02 02:56:00,33.4,30.0,29.94,East,98,2.0,5.0,88,0.00,,,0.00,weatherlink.com 1.10,2013-11-02 11:56:00,
2013-11-02 03:11:00,33.3,30.0,29.93,East,98,1.0,5.0,89,0.00,,,0.00,weatherlink.com 1.10,2013-11-02 12:11:00,
2013-11-02 03:26:00,33.1,30.0,29.93,East,98,2.0,5.0,89,0.00,,,0.00,weatherlink.com 1.10,2013-11-02 12:26:00,
2013-11-02 03:41:00,33.2,31.0,29.92,East,99,2.0,6.0,90,0.00,,,0.00,weatherlink.com 1.10,2013-11-02 12:41:00,
2013-11-02 03:56:00,34.6,32.0,29.92,SE,136,4.0,8.0,90,0.00,,,0.00,weatherlink.com 1.10,2013-11-02 12:56:00,
2013-11-02 04:11:00,34.0,31.0,29.91,East,101,1.0,5.0,88,0.00,,,0.00,weatherlink.com 1.10,2013-11-02 13:11:00,
2013-11-02 04:26:00,34.0,31.0,29.91,ENE,72,0.0,5.0,89,0.00,,,0.00,weatherlink.com 1.10,2013-11-02 13:26:00,
2013-11-02 04:41:00,34.9,31.0,29.91,South,169,3.0,7.0,87,0.00,,,0.00,weatherlink.com 1.10,2013-11-02 13:41:00,
2013-11-02 04:56:00,36.3,33.0,29.91,SE,130,2.0,7.0,86,0.00,,,0.00,weatherlink.com 1.10,2013-11-02 13:56:00,
2013-11-02 05:12:00,35.6,32.0,29.90,SE,130,1.0,3.0,85,0.00,,,0.00,weatherlink.com 1.10,2013-11-02 14:12:00,
2013-11-02 05:27:00,35.4,31.0,29.90,SE,130,0.0,5.0,85,0.00,,,0.00,weatherlink.com 1.10,2013-11-02 14:27:00,
2013-11-02 05:42:00,35.7,32.0,29.89,East,79,0.0,6.0,85,0.00,,,0.00,weatherlink.com 1.10,2013-11-02 14:42:00,
2013-11-02 05:57:00,36.1,32.0,29.88,NNW,340,4.0,5.0,85,0.00,,,0.00,weatherlink.com 1.10,2013-11-02 14:57:00,
2013-11-02 06:12:00,36.7,32.0,29.88,North,355,2.0,5.0,83,0.00,,,0.00,weatherlink.com 1.10,2013-11-02 15:12:00,
2013-11-02 06:27:00,37.1,32.0,29.87,East,94,2.0,6.0,83,0.00,,,0.00,weatherlink.com 1.10,2013-11-02 15:27:00,
2013-11-02 06:42:00,37.0,32.0,29.87,ENE,58,0.0,5.0,82,0.00,,,0.00,weatherlink.com 1.10,2013-11-02 15:42:00,
2013-11-02 06:57:00,36.3,32.0,29.86,ENE,65,2.0,4.0,84,0.00,,,0.00,weatherlink.com 1.10,2013-11-02 15:57:00,
2013-11-02 07:12:00,36.8,33.0,29.86,ENE,65,0.0,2.0,85,0.00,,,0.00,weatherlink.com 1.10,2013-11-02 16:12:00,
2013-11-02 07:27:00,38.2,34.0,29.85,NNW,341,1.0,8.0,84,0.00,,,0.00,weatherlink.com 1.10,2013-11-02 16:27:00,
2013-11-02 07:42:00,37.9,33.0,29.85,ESE,109,4.0,6.0,83,0.00,,,0.00,weatherlink.com 1.10,2013-11-02 16:42:00,
2013-11-02 07:57:00,38.8,34.0,29.85,SE,126,2.0,8.0,83,0.00,,,0.00,weatherlink.com 1.10,2013-11-02 16:57:00,
2013-11-02 08:12:00,38.9,35.0,29.85,SE,133,1.0,10.0,84,0.00,,,0.00,weatherlink.com 1.10,2013-11-02 17:12:00,
2013-11-02 08:27:00,38.6,35.0,29.85,ESE,105,3.0,5.0,85,0.00,,,0.00,weatherlink.com 1.10,2013-11-02 17:27:00,
2013-11-02 08:42:00,38.2,34.0,29.84,ENE,65,3.0,5.0,86,0.00,,,0.00,weatherlink.com 1.10,2013-11-02 17:42:00,
2013-11-02 08:57:00,38.2,35.0,29.84,ENE,65,1.0,7.0,87,0.00,,,0.00,weatherlink.com 1.10,2013-11-02 17:57:00,
2013-11-02 09:12:00,38.3,35.0,29.83,ESE,116,0.0,6.0,87,0.00,,,0.00,weatherlink.com 1.10,2013-11-02 18:12:00,
2013-11-02 09:27:00,38.4,35.0,29.83,ENE,71,2.0,5.0,88,0.00,,,0.00,weatherlink.com 1.10,2013-11-02 18:27:00,
2013-11-02 09:42:00,38.7,36.0,29.82,ESE,104,2.0,5.0,88,0.00,,,0.00,weatherlink.com 1.10,2013-11-02 18:42:00,
2013-11-02 09:57:00,38.8,36.0,29.81,ENE,68,4.0,5.0,88,0.00,,,0.00,weatherlink.com 1.10,2013-11-02 18:57:00,
2013-11-02 10:12:00,38.6,35.0,29.80,NE,54,0.0,4.0,88,0.00,,,0.00,weatherlink.com 1.10,2013-11-02 19:12:00,
2013-11-02 10:27:00,38.4,36.0,29.80,East,80,2.0,3.0,89,0.00,,,0.00,weatherlink.com 1.10,2013-11-02 19:27:00,
2013-11-02 10:42:00,38.9,36.0,29.79,SE,128,0.0,4.0,89,0.00,,,0.00,weatherlink.com 1.10,2013-11-02 19:42:00,
2013-11-02 10:57:00,38.9,36.0,29.79,SE,128,3.0,4.0,88,0.00,,,0.00,weatherlink.com 1.10,2013-11-02 19:57:00,
2013-11-02 11:12:00,39.5,36.0,29.78,East,92,0.0,6.0,88,0.00,,,0.00,weatherlink.com 1.10,2013-11-02 20:12:00,
2013-11-02 11:27:00,40.0,37.0,29.78,East,93,2.0,10.0,88,0.00,,,0.00,weatherlink.com 1.10,2013-11-02 20:27:00,
2013-11-02 11:42:00,40.1,37.0,29.78,ESE,108,4.0,9.0,88,0.00,,,0.00,weatherlink.com 1.10,2013-11-02 20:42:00,
2013-11-02 11:57:00,40.5,37.0,29.77,ENE,69,5.0,7.0,88,0.00,,,0.00,weatherlink.com 1.10,2013-11-02 20:57:00,
2013-11-02 12:12:00,40.9,38.0,29.77,ESE,107,6.0,10.0,88,0.00,,,0.00,weatherlink.com 1.10,2013-11-02 21:12:00,
2013-11-02 12:27:00,41.1,38.0,29.76,SE,140,6.0,12.0,88,0.00,,,0.00,weatherlink.com 1.10,2013-11-02 21:27:00,
2013-11-02 12:42:00,41.2,38.0,29.76,SE,138,8.0,16.0,88,0.00,,,0.00,weatherlink.com 1.10,2013-11-02 21:42:00,
2013-11-02 12:57:00,41.5,38.0,29.75,SE,138,6.0,10.0,88,0.00,,,0.00,weatherlink.com 1.10,2013-11-02 21:57:00,
2013-11-02 13:12:00,41.9,38.0,29.75,SE,128,7.0,14.0,87,0.00,,,0.00,weatherlink.com 1.10,2013-11-02 22:12:00,
2013-11-02 13:27:00,42.0,38.0,29.74,ESE,121,7.0,19.0,87,0.00,,,0.00,weatherlink.com 1.10,2013-11-02 22:27:00,
2013-11-02 13:42:00,42.1,39.0,29.74,ESE,112,3.0,13.0,87,0.00,,,0.00,weatherlink.com 1.10,2013-11-02 22:42:00,
2013-11-02 13:57:00,42.4,38.0,29.73,SE,128,12.0,22.0,84,0.00,,,0.00,weatherlink.com 1.10,2013-11-02 22:57:00,
2013-11-02 14:12:00,42.4,38.0,29.72,SE,137,10.0,19.0,84,0.00,,,0.00,weatherlink.com 1.10,2013-11-02 23:12:00,
2013-11-02 14:28:00,42.6,38.0,29.72,SSE,150,8.0,15.0,83,0.00,,,0.00,weatherlink.com 1.10,2013-11-02 23:28:00,
2013-11-02 14:43:00,42.7,38.0,29.71,East,86,4.0,15.0,83,0.00,,,0.00,weatherlink.com 1.10,2013-11-02 23:43:00,
2013-11-02 14:58:00,43.0,38.0,29.71,ESE,114,4.0,22.0,82,0.00,,,0.00,weatherlink.com 1.10,2013-11-02 23:58:00,
2013-11-02 15:13:00,43.2,38.0,29.70,East,95,8.0,16.0,82,0.00,,,0.00,weatherlink.com 1.10,2013-11-03 00:13:00,
2013-11-02 15:28:00,43.1,38.0,29.70,East,97,14.0,25.0,81,0.00,,,0.00,weatherlink.com 1.10,2013-11-03 00:28:00,
2013-11-02 15:43:00,43.1,38.0,29.70,SE,132,9.0,20.0,81,0.00,,,0.00,weatherlink.com 1.10,2013-11-03 00:43:00,
2013-11-02 15:58:00,42.9,37.0,29.69,East,92,3.0,19.0,81,0.00,,,0.00,weatherlink.com 1.10,2013-11-03 00:58:00,
2013-11-02 16:13:00,43.0,38.0,29.69,East,86,6.0,21.0,81,0.00,,,0.00,weatherlink.com 1.10,2013-11-03 01:13:00,
2013-11-02 16:28:00,42.9,37.0,29.68,ESE,118,10.0,20.0,80,0.00,,,0.00,weatherlink.com 1.10,2013-11-03 01:28:00,
2013-11-02 16:43:00,42.4,37.0,29.68,NE,55,3.0,14.0,82,0.00,,,0.00,weatherlink.com 1.10,2013-11-03 01:43:00,
2013-11-02 16:58:00,42.2,37.0,29.68,SE,127,11.0,14.0,82,0.00,,,0.00,weatherlink.com 1.10,2013-11-03 01:58:00,
2013-11-02 17:13:00,42.3,38.0,29.67,ENE,69,3.0,16.0,83,0.00,,,0.00,weatherlink.com 1.10,2013-11-03 02:13:00,
2013-11-02 17:28:00,42.4,37.0,29.68,East,94,5.0,12.0,82,0.00,,,0.00,weatherlink.com 1.10,2013-11-03 02:28:00,
2013-11-02 17:43:00,42.3,38.0,29.67,ESE,107,2.0,13.0,83,0.00,,,0.00,weatherlink.com 1.10,2013-11-03 02:43:00,
2013-11-02 17:58:00,42.6,38.0,29.67,ESE,103,4.0,15.0,82,0.00,,,0.00,weatherlink.com 1.10,2013-11-03 02:58:00,
2013-11-02 18:13:00,42.7,38.0,29.67,NNE,20,4.0,12.0,82,0.00,,,0.00,weatherlink.com 1.10,2013-11-03 03:13:00,
2013-11-02 18:28:00,42.3,37.0,29.67,ENE,66,2.0,7.0,82,0.00,,,0.00,weatherlink.com 1.10,2013-11-03 03:28:00,
2013-11-02 18:43:00,42.7,38.0,29.67,East,82,5.0,9.0,82,0.00,,,0.00,weatherlink.com 1.10,2013-11-03 03:43:00,
2013-11-02 18:58:00,43.6,38.0,29.67,NE,49,4.0,9.0,79,0.00,,,0.00,weatherlink.com 1.10,2013-11-03 03:58:00,
2013-11-02 19:13:00,43.6,37.0,29.68,East,82,6.0,9.0,78,0.00,,,0.00,weatherlink.com 1.10,2013-11-03 04:13:00,
2013-11-02 19:28:00,42.7,37.0,29.68,ENE,57,5.0,6.0,79,0.00,,,0.00,weatherlink.com 1.10,2013-11-03 04:28:00,
2013-11-02 19:43:00,43.1,37.0,29.68,NE,36,2.0,8.0,80,0.00,,,0.00,weatherlink.com 1.10,2013-11-03 04:43:00,
2013-11-02 19:58:00,43.1,37.0,29.68,ENE,59,4.0,9.0,80,0.00,,,0.00,weatherlink.com 1.10,2013-11-03 04:58:00,
2013-11-02 20:13:00,43.3,38.0,29.67,East,90,6.0,7.0,80,0.00,,,0.00,weatherlink.com 1.10,2013-11-03 05:13:00,
2013-11-02 20:28:00,43.6,38.0,29.68,East,97,4.0,10.0,81,0.00,,,0.00,weatherlink.com 1.10,2013-11-03 05:28:00,
2013-11-02 20:43:00,43.6,38.0,29.68,East,91,4.0,10.0,81,0.00,,,0.00,weatherlink.com 1.10,2013-11-03 05:43:00,
2013-11-02 20:58:00,43.5,38.0,29.68,East,98,13.0,13.0,81,0.00,,,0.00,weatherlink.com 1.10,2013-11-03 05:58:00,
2013-11-02 21:13:00,43.6,38.0,29.68,ESE,117,1.0,7.0,81,0.00,,,0.00,weatherlink.com 1.10,2013-11-03 06:13:00,
2013-11-02 21:28:00,43.9,38.0,29.68,NE,54,4.0,7.0,80,0.00,,,0.00,weatherlink.com 1.10,2013-11-03 06:28:00,
2013-11-02 21:43:00,43.9,38.0,29.68,ESE,112,8.0,10.0,80,0.00,,,0.00,weatherlink.com 1.10,2013-11-03 06:43:00,
2013-11-02 21:58:00,43.8,38.0,29.67,ESE,109,5.0,9.0,80,0.00,,,0.00,weatherlink.com 1.10,2013-11-03 06:58:00,
2013-11-02 22:13:00,43.9,38.0,29.67,ENE,71,4.0,10.0,80,0.00,,,0.00,weatherlink.com 1.10,2013-11-03 07:13:00,
2013-11-02 22:28:00,44.1,39.0,29.68,East,99,7.0,10.0,81,0.00,,,0.00,weatherlink.com 1.10,2013-11-03 07:28:00,
2013-11-02 22:43:00,44.3,39.0,29.68,ENE,57,12.0,12.0,81,0.00,,,0.00,weatherlink.com 1.10,2013-11-03 07:43:00,
2013-11-02 22:58:00,44.4,39.0,29.68,East,98,5.0,10.0,81,0.00,,,0.00,weatherlink.com 1.10,2013-11-03 07:58:00,
2013-11-02 23:13:00,44.5,39.0,29.68,ENE,60,1.0,5.0,80,0.00,,,0.00,weatherlink.com 1.10,2013-11-03 08:13:00,
2013-11-02 23:28:00,44.8,39.0,29.68,ENE,71,1.0,7.0,80,0.00,,,0.00,weatherlink.com 1.10,2013-11-03 08:28:00,
2013-11-02 23:43:00,45.0,39.0,29.68,ENE,74,3.0,10.0,79,0.00,,,0.00,weatherlink.com 1.10,2013-11-03 08:43:00,
2013-11-02 23:58:00,44.5,39.0,29.69,ENE,59,6.0,10.0,80,0.00,,,0.00,weatherlink.com 1.10,2013-11-03 08:58:00,